QTR51K EDDM-OTHH

Flight info

Callsign QTR51K
Flight time N/A
Altitude 33000
Route ROTAX4E/08R ROTAX L603 LATLO DCT OBEDI/N0489F330 DCT DIPSA/N0483F350 DCT PODET DCT GUBOK/N0479F370 DCT DER DCT SOMUN DCT ELGEB DCT SOSEK DCT NISVA DCT USALI DCT OTKOK DCT RODIP DCT BELGI UT38 VESAR DCT NIKAS R785 RASLI P559 TRF R23 NEVOL N318 GIBAM/N0486F390 N318 TAMRO T503 KSA N687 KINIB Z511 GISRA L681 ORLEK
Aircraft B77W/H-SDE1E2E3FGHIJ2J3J4J5M1RWXY/LB1D1

Departure

Time N/A
Airport Munich Airport (EDDM)

Arrival

Time 2026-05-03 20:55
Airport Hamad International Airport (OTHH)
Time Latitude Longitude Altitude Speed Heading
2026-05-03 20:15 25.43599 47.63192 36997 ft 500 kts 75°
2026-05-03 20:15 25.45378 47.70632 36973 ft 500 kts 75°
2026-05-03 20:16 25.47154 47.78076 36967 ft 500 kts 75°
2026-05-03 20:16 25.48925 47.85521 36962 ft 500 kts 75°
2026-05-03 20:17 25.50690 47.92963 36956 ft 500 kts 75°
2026-05-03 20:17 25.52870 48.00207 36946 ft 499 kts 65°
2026-05-03 20:18 25.55761 48.07199 36947 ft 499 kts 64°
2026-05-03 20:18 25.58659 48.14188 36939 ft 500 kts 65°
2026-05-03 20:19 25.61508 48.21210 36934 ft 500 kts 65°
2026-05-03 20:19 25.64343 48.28242 36911 ft 500 kts 65°
2026-05-03 20:20 25.67070 48.35326 36918 ft 500 kts 72°
2026-05-03 20:20 25.68305 48.42884 36915 ft 500 kts 88°
2026-05-03 20:21 25.67990 48.50565 36917 ft 499 kts 96°
2026-05-03 20:21 25.67408 48.58227 36909 ft 499 kts 95°
2026-05-03 20:22 25.66868 48.65893 36906 ft 499 kts 95°
2026-05-03 20:22 25.66368 48.73565 36892 ft 499 kts 95°
2026-05-03 20:23 25.65873 48.81241 36875 ft 499 kts 95°
2026-05-03 20:23 25.65371 48.88911 36880 ft 499 kts 95°
2026-05-03 20:24 25.64864 48.96576 36882 ft 498 kts 95°
2026-05-03 20:24 25.64356 49.04180 36876 ft 498 kts 95°
2026-05-03 20:25 25.63841 49.11839 36882 ft 499 kts 95°
2026-05-03 20:25 25.63405 49.18249 36875 ft 499 kts 95°
2026-05-03 20:26 25.62884 49.25919 36880 ft 499 kts 95°
2026-05-03 20:26 25.62357 49.33580 36875 ft 497 kts 95°
2026-05-03 20:26 25.62091 49.37370 36652 ft 493 kts 95°
2026-05-03 20:27 25.61826 49.41146 36196 ft 489 kts 95°
2026-05-03 20:27 25.61561 49.44882 35795 ft 483 kts 95°
2026-05-03 20:27 25.61298 49.48572 35382 ft 478 kts 95°
2026-05-03 20:27 25.61038 49.52225 34966 ft 473 kts 95°
2026-05-03 20:28 25.60778 49.55847 34550 ft 469 kts 95°
2026-05-03 20:28 25.60520 49.59431 34132 ft 465 kts 95°
2026-05-03 20:28 25.60265 49.62981 33713 ft 461 kts 95°
2026-05-03 20:28 25.60011 49.66503 33296 ft 457 kts 95°
2026-05-03 20:29 25.59758 49.70001 32881 ft 453 kts 95°
2026-05-03 20:29 25.59506 49.73466 32470 ft 450 kts 95°
2026-05-03 20:29 25.59256 49.76904 32061 ft 446 kts 95°
2026-05-03 20:29 25.59006 49.80316 31654 ft 443 kts 95°
2026-05-03 20:30 25.58761 49.83660 31253 ft 439 kts 95°
2026-05-03 20:30 25.58511 49.87064 30839 ft 436 kts 95°
2026-05-03 20:30 25.58265 49.90399 30439 ft 433 kts 95°
2026-05-03 20:30 25.58020 49.93708 30045 ft 430 kts 95°
2026-05-03 20:31 25.57776 49.96999 29640 ft 427 kts 95°
2026-05-03 20:31 25.57533 50.00263 29238 ft 424 kts 95°
2026-05-03 20:31 25.57295 50.03463 28829 ft 421 kts 95°
2026-05-03 20:31 25.57053 50.06690 28422 ft 419 kts 95°
2026-05-03 20:32 25.56813 50.09894 28021 ft 417 kts 95°
2026-05-03 20:32 25.56572 50.13082 27614 ft 414 kts 95°
2026-05-03 20:32 25.56303 50.16248 27201 ft 411 kts 98°
2026-05-03 20:32 25.55781 50.19347 26796 ft 408 kts 104°
2026-05-03 20:33 25.54958 50.22342 26382 ft 405 kts 109°
2026-05-03 20:33 25.54050 50.25284 25985 ft 402 kts 109°
2026-05-03 20:33 25.53141 50.28204 25580 ft 400 kts 109°
2026-05-03 20:33 25.52240 50.31110 25174 ft 398 kts 109°
2026-05-03 20:34 25.51350 50.34002 24780 ft 396 kts 109°
2026-05-03 20:34 25.50470 50.36876 24370 ft 393 kts 109°
2026-05-03 20:34 25.49597 50.39737 23973 ft 391 kts 109°
2026-05-03 20:34 25.48729 50.42584 23570 ft 389 kts 109°
2026-05-03 20:35 25.47867 50.45411 23169 ft 387 kts 109°
2026-05-03 20:35 25.47009 50.48225 22784 ft 385 kts 109°
2026-05-03 20:35 25.46157 50.51022 22382 ft 383 kts 109°
2026-05-03 20:35 25.45306 50.53808 21993 ft 381 kts 109°
2026-05-03 20:36 25.44459 50.56577 21597 ft 379 kts 109°
2026-05-03 20:36 25.43615 50.59332 21202 ft 377 kts 109°
2026-05-03 20:36 25.42774 50.62078 20800 ft 376 kts 109°
2026-05-03 20:36 25.41881 50.64796 20327 ft 376 kts 111°
2026-05-03 20:37 25.40927 50.67492 19853 ft 377 kts 111°
2026-05-03 20:37 25.39955 50.70187 19376 ft 377 kts 112°
2026-05-03 20:37 25.38984 50.72881 18904 ft 377 kts 111°
2026-05-03 20:37 25.38018 50.75576 18425 ft 378 kts 111°
2026-05-03 20:38 25.37055 50.78278 17947 ft 378 kts 111°
2026-05-03 20:38 25.36094 50.80984 17466 ft 378 kts 111°
2026-05-03 20:38 25.35135 50.83690 16981 ft 378 kts 111°
2026-05-03 20:38 25.34177 50.86395 16504 ft 378 kts 111°
2026-05-03 20:39 25.33219 50.89099 16026 ft 378 kts 111°
2026-05-03 20:39 25.32261 50.91801 15539 ft 377 kts 111°
2026-05-03 20:39 25.31303 50.94500 15072 ft 377 kts 111°
2026-05-03 20:39 25.30347 50.97200 14595 ft 377 kts 111°
2026-05-03 20:40 25.29389 50.99893 14114 ft 377 kts 112°
2026-05-03 20:40 25.28432 51.02584 13637 ft 377 kts 112°
2026-05-03 20:40 25.27475 51.05272 13162 ft 376 kts 112°
2026-05-03 20:40 25.26747 51.08004 12667 ft 368 kts 96°
2026-05-03 20:41 25.26749 51.10799 12235 ft 363 kts 87°
2026-05-03 20:41 25.26851 51.13584 11779 ft 363 kts 88°
2026-05-03 20:41 25.26918 51.16368 11321 ft 363 kts 88°
2026-05-03 20:41 25.26963 51.19157 10860 ft 363 kts 89°
2026-05-03 20:42 25.26994 51.21926 10509 ft 359 kts 89°
2026-05-03 20:42 25.27017 51.24672 10127 ft 356 kts 89°
2026-05-03 20:42 25.26808 51.27347 9841 ft 345 kts 101°
2026-05-03 20:42 25.26273 51.29895 9688 ft 333 kts 104°
2026-05-03 20:43 25.25698 51.32281 9492 ft 311 kts 105°
2026-05-03 20:43 25.25154 51.34548 8977 ft 302 kts 104°
2026-05-03 20:43 25.24647 51.36764 8531 ft 293 kts 103°
2026-05-03 20:43 25.24173 51.38919 8235 ft 286 kts 103°
2026-05-03 20:44 25.23707 51.41079 7981 ft 293 kts 103°
2026-05-03 20:44 25.23234 51.43287 7676 ft 297 kts 103°
2026-05-03 20:44 25.22759 51.45497 7378 ft 295 kts 103°
2026-05-03 20:44 25.22010 51.47549 7062 ft 287 kts 127°
2026-05-03 20:45 25.20564 51.49015 6804 ft 280 kts 151°
2026-05-03 20:45 25.18799 51.49882 6548 ft 277 kts 160°
2026-05-03 20:45 25.17001 51.50648 6274 ft 276 kts 160°
2026-05-03 20:45 25.15211 51.51426 6003 ft 277 kts 159°
2026-05-03 20:46 25.13421 51.52208 5731 ft 277 kts 159°
2026-05-03 20:46 25.11630 51.52992 5472 ft 277 kts 159°
2026-05-03 20:46 25.09854 51.53773 5254 ft 273 kts 159°
2026-05-03 20:46 25.08111 51.54538 4950 ft 274 kts 159°
2026-05-03 20:47 25.06341 51.55316 4669 ft 274 kts 159°
2026-05-03 20:47 25.04574 51.56095 4404 ft 273 kts 159°
2026-05-03 20:47 25.02816 51.56870 4142 ft 271 kts 159°
2026-05-03 20:47 25.01081 51.57632 3871 ft 266 kts 159°
2026-05-03 20:48 24.99506 51.58594 3576 ft 256 kts 137°
2026-05-03 20:48 24.98580 51.60191 3466 ft 245 kts 105°
2026-05-03 20:48 24.98405 51.62080 3416 ft 250 kts 89°
2026-05-03 20:48 24.98463 51.63987 3252 ft 246 kts 82°
2026-05-03 20:49 24.98822 51.65796 3150 ft 239 kts 73°
2026-05-03 20:49 24.99275 51.67542 3083 ft 236 kts 70°
2026-05-03 20:49 25.00090 51.69098 3038 ft 237 kts 49°
2026-05-03 20:49 25.01190 51.70471 2993 ft 240 kts 47°
2026-05-03 20:50 25.02420 51.71634 2910 ft 227 kts 24°
2026-05-03 20:50 25.03873 51.71858 2910 ft 203 kts 350°
2026-05-03 20:50 25.05207 51.71478 2870 ft 207 kts 343°
2026-05-03 20:50 25.06659 51.70967 2828 ft 224 kts 340°
2026-05-03 20:51 25.08119 51.70362 2748 ft 224 kts 339°
2026-05-03 20:51 25.09080 51.69942 2700 ft 224 kts 338°
2026-05-03 20:51 25.10521 51.69305 2615 ft 223 kts 338°
2026-05-03 20:51 25.11958 51.68671 2555 ft 223 kts 338°
2026-05-03 20:52 25.13398 51.68036 2508 ft 223 kts 338°
2026-05-03 20:52 25.14843 51.67398 2266 ft 223 kts 338°
2026-05-03 20:52 25.16252 51.66776 1965 ft 211 kts 338°
2026-05-03 20:52 25.17558 51.66200 1692 ft 194 kts 338°
2026-05-03 20:53 25.18760 51.65670 1441 ft 178 kts 338°
2026-05-03 20:53 25.19853 51.65188 1219 ft 159 kts 338°
2026-05-03 20:53 25.20864 51.64742 1023 ft 156 kts 338°
2026-05-03 20:53 25.21870 51.64298 821 ft 156 kts 338°
2026-05-03 20:54 25.22873 51.63854 614 ft 155 kts 338°
2026-05-03 20:54 25.24857 51.62976 267 ft 154 kts 338°
2026-05-03 20:54 25.25854 51.62536 57 ft 154 kts 339°
2026-05-03 20:55 25.26794 51.62136 28 ft 131 kts 338°
2026-05-03 20:55 25.27570 51.61791 32 ft 111 kts 338°
2026-05-03 20:55 25.27969 51.61599 31 ft 42 kts 328°
2026-05-03 20:55 25.28093 51.61464 32 ft 16 kts 310°
2026-05-03 20:56 25.28083 51.61377 33 ft 14 kts 204°
2026-05-03 20:56 25.28004 51.61425 33 ft 14 kts 159°
2026-05-03 20:56 25.27907 51.61437 33 ft 14 kts 166°
2026-05-03 20:56 25.27814 51.61477 33 ft 14 kts 158°
2026-05-03 20:57 25.27722 51.61518 33 ft 14 kts 158°
2026-05-03 20:57 25.27630 51.61558 33 ft 14 kts 158°
2026-05-03 20:57 25.27537 51.61598 33 ft 14 kts 158°
2026-05-03 20:57 25.27440 51.61640 34 ft 18 kts 158°
2026-05-03 20:58 25.27316 51.61695 33 ft 19 kts 158°
2026-05-03 20:58 25.27191 51.61750 33 ft 19 kts 158°
2026-05-03 20:58 25.27066 51.61805 33 ft 19 kts 158°
2026-05-03 20:58 25.26940 51.61862 33 ft 20 kts 158°
2026-05-03 20:59 25.26811 51.61918 33 ft 20 kts 159°
2026-05-03 20:59 25.26682 51.61974 33 ft 20 kts 158°
2026-05-03 20:59 25.26574 51.61986 33 ft 14 kts 222°
2026-05-03 20:59 25.26531 51.61887 34 ft 14 kts 248°
2026-05-03 21:00 25.26493 51.61784 35 ft 14 kts 248°
2026-05-03 21:00 25.26469 51.61715 35 ft 14 kts 249°
2026-05-03 21:00 25.26435 51.61626 35 ft 0 kts 229°
2026-05-03 21:00 25.26424 51.61625 35 ft 2 kts 179°
2026-05-03 21:01 25.26408 51.61635 35 ft 4 kts 150°
2026-05-03 21:01 25.26378 51.61649 34 ft 5 kts 159°
2026-05-03 21:01 25.26349 51.61661 34 ft 1 kts 159°
2026-05-03 21:01 25.26342 51.61664 35 ft 0 kts 159°